#timestamp,LO_Frequency,Hit,StdDev 
1706428815.6,286047000.3,P
1706428835.4,286046998.9,N
1706428855.2,286046999.0,N
1706428875.1,286046999.4,N
1706428876.0,286046999.4,N
1706428895.8,286046998.4,N
1706428915.7,286046998.9,N
1706428935.5,286047001.0,N
1706428955.3,286047000.9,N
1706428975.2,286046999.1,N
1706428995.0,286046996.5,N
1706428995.9,286046996.5,N
1706429015.7,286046998.5,N
1706429035.6,286046999.4,N
1706429055.4,286046999.6,N
1706429075.3,286046999.3,N
1706429095.1,286046999.6,N
1706429096.0,286046999.6,N
1706429115.8,286046999.3,N
1706429135.7,286046998.2,N
1706429155.5,286046998.6,N
1706429175.3,286046999.0,N
1706429195.2,286047001.1,N
1706429215.0,286046999.1,N
1706429215.9,286046999.1,N
1706429235.8,286046998.4,N
1706429255.6,286046999.4,N
1706429275.4,286046999.2,N
1706429295.3,286046996.5,N
1706429315.1,286046999.3,N
1706429335.9,286046999.0,N
1706429355.7,286046998.3,N
1706429375.5,286046998.2,N
1706429395.4,286046999.3,N
1706429415.2,286046999.0,N
1706429435.0,286046998.8,N
1706429435.9,286046998.8,N
1706429455.8,286046998.2,N
1706429475.6,286046998.5,N
1706429495.5,286046998.2,N
1706429515.3,286047000.7,N
1706429535.1,286047000.4,N
1706429555.9,286047000.2,N
1706429575.7,286047001.1,N
1706429595.5,286047000.8,N
1706429615.4,286047000.6,N
1706429635.2,286046998.2,N
1706429655.1,286046999.4,N
1706429656.0,286046999.4,N
1706429675.8,286046998.3,N
1706429695.6,286046999.1,N
1706429715.5,286046998.7,N
1706429735.3,286046998.1,N
1706429755.1,286046999.1,N
1706429775.9,286046998.4,N
1706429795.7,286047000.5,N
1706429815.6,286047000.4,N
1706429835.4,286047000.3,N
1706429855.2,286047000.8,N
1706429875.1,286047000.1,N
1706429876.0,286047000.1,N
1706429895.8,286047001.0,N
1706429915.7,286046998.1,N
1706429935.5,286046998.3,N
1706429955.3,286047001.2,N
1706429975.2,286046998.6,N
1706429995.0,286046998.6,N
1706429995.9,286046998.6,N
1706430015.7,286046996.9,N
1706430035.6,286046999.3,N
1706430055.4,286046998.4,N
1706430075.3,286046998.5,N
1706430095.1,286046998.1,N
1706430096.0,286046998.1,N
1706430115.8,286046999.1,N
1706430135.7,286046997.7,N
1706430155.5,286046997.3,N
1706430175.4,286046996.6,Y
1706430195.2,286046998.2,P
1706430215.0,286047001.0,N
1706430215.9,286047001.0,N
1706430235.8,286047000.3,N
1706430255.6,286046999.9,N
1706430275.4,286047002.7,N
1706430295.3,286047000.2,N
1706430315.1,286047002.8,N
1706430335.9,286047000.3,N
1706430355.7,286047000.0,N
1706430375.5,286047002.8,N
1706430395.4,286047002.1,N
1706430415.2,286047001.3,N
1706430435.0,286047001.9,N
1706430435.9,286047001.9,N
1706430455.8,286046999.8,N
1706430475.6,286046999.8,N
1706430495.5,286047002.5,N
1706430515.3,286047001.4,N
1706430535.1,286047002.0,N
1706430555.9,286047003.6,N
1706430575.7,286047004.1,N
1706430595.5,286047003.0,N
1706430615.4,286047004.2,N
1706430635.2,286047003.9,N
1706430655.1,286047002.6,N
1706430656.0,286047002.6,N
1706430675.8,286047000.2,N
1706430695.6,286047002.2,N
1706430715.5,286047001.6,N
1706430735.3,286047002.3,N
1706430755.2,286047002.0,N
1706430775.9,286047001.4,N
1706430795.7,286047002.9,N
1706430815.6,286047003.9,Y
1706430835.4,286047002.6,P
1706430855.2,286047001.6,P
1706430875.1,286047002.7,P
1706430876.0,286047002.7,Y
1706430895.8,286046998.5,P
1706430915.7,286046999.3,N
1706430935.5,286046999.5,N
1706430955.3,286046999.5,N
1706430975.2,286046998.3,N
1706430995.0,286047001.0,N
1706430995.9,286047001.0,N
1706431015.8,286046998.2,N
1706431035.6,286046999.4,N
1706431055.4,286046997.8,N
1706431075.3,286046997.3,N
1706431095.1,286046997.7,N
1706431115.8,286046999.2,N
1706431135.7,286046998.8,N
1706431155.5,286046997.1,N
1706431175.4,286046997.3,N
1706431195.2,286046997.7,N
1706431215.0,286046995.5,Y
1706431215.9,286046995.5,P
1706431235.8,286046999.0,N
1706431255.6,286046998.5,N
1706431275.5,286046998.1,N
1706431295.3,286046998.5,N
1706431315.1,286046998.6,N
1706431335.9,286046998.5,N
1706431355.7,286046998.2,N
1706431375.5,286046998.6,N
1706431395.4,286046999.1,N
1706431415.2,286046998.3,N
1706431435.1,286046998.7,N
1706431436.0,286046998.7,N
1706431455.8,286047001.1,N
1706431475.6,286047001.2,N
1706431495.5,286046998.7,N
1706431515.3,286047000.4,N
1706431535.2,286046998.7,N
1706431555.9,286046998.2,N
1706431575.7,286047000.6,N
1706431595.6,286046999.7,N
1706431615.4,286047001.8,N
1706431635.2,286047002.1,N
1706431655.1,286047002.4,N
1706431656.0,286047002.4,N
1706431675.8,286047001.5,N
1706431695.7,286047001.9,N
1706431715.5,286047002.2,N
1706431735.3,286047002.5,N
1706431755.2,286047002.5,N
1706431775.0,286047002.6,N
1706431775.9,286047002.6,N
1706431795.7,286047004.3,N
1706431815.6,286047002.7,N
1706431835.4,286047001.9,N
1706431855.3,286047002.6,N
1706431875.1,286047001.5,N
1706431895.8,286047001.5,N
1706431915.7,286047000.2,N
1706431935.5,286047002.1,N
1706431955.4,286047002.1,N
1706431975.2,286047002.6,N
1706431995.0,286047002.2,N
1706431995.9,286047002.2,N
1706432015.8,286047002.0,N
1706432035.6,286047002.8,N
1706432055.4,286047000.5,N
1706432075.3,286047000.8,N
1706432095.1,286047000.9,N
1706432115.9,286046998.6,N
1706432135.7,286047000.6,N
1706432155.5,286047000.8,N
1706432175.4,286047001.1,N
1706432195.2,286046998.1,N
1706432215.0,286047000.8,N
1706432215.9,286047000.8,N
1706432235.8,286047002.5,N
1706432255.6,286047004.0,Y
1706432275.5,286047001.9,P
1706432295.3,286047001.5,P
1706432315.1,286047001.9,P
1706432335.9,286047000.8,Y
1706432355.7,286046997.2,P
1706432375.6,286046998.9,N
1706432395.4,286046999.4,N
